When you browse on this site, cookies collect data to enhance your experience and personalize the content and advertising you see.
Visit our Privacy Policy to learn more. By continuing to use the site, you agree to this use of cookies and data.
  • In Hungary
  • List of Countries
  • For 7 days
  • Water Temperature
  • Weather Map
  • News
  • Weather Widgets
  • user-avatar
    Login

    Hourly Weather Skvereta

    Today, 20 January, Monday

    Time Temperature Precipitation Wind Pressure Humidity
    00:00 -4°C° 0 mm 3 mps 759 mmHg 95%
    01:00 -4°C° 0 mm 3 mps 759 mmHg 95%
    02:00 -2°C° 0 mm 3 mps 759 mmHg 97%
    03:00 -2°C° 0 mm 3 mps 759 mmHg 95%
    04:00 -3°C° 0 mm 4 mps 759 mmHg 94%
    05:00 -2°C° 0 mm 4 mps 759 mmHg 93%
    06:00 -2°C° 0 mm 4 mps 759 mmHg 94%
    07:00 -2°C° 0 mm 4 mps 759 mmHg 95%
    08:00 -4°C° 0 mm 5 mps 759 mmHg 95%
    09:00 -2°C° 0 mm 5 mps 759 mmHg 94%
    10:00 -2°C° 0 mm 5 mps 759 mmHg 93%
    11:00 -2°C° 0 mm 5 mps 759 mmHg 91%
    12:00 -2°C° 0 mm 5 mps 759 mmHg 88%
    13:00 -2°C° 0 mm 5 mps 759 mmHg 85%
    14:00 -1°C° 0 mm 5 mps 759 mmHg 82%
    15:00 -2°C° 0 mm 5 mps 759 mmHg 84%
    16:00 -2°C° 0 mm 5 mps 758 mmHg 86%
    17:00 -2°C° 0 mm 5 mps 758 mmHg 87%
    18:00 -2°C° 0 mm 5 mps 758 mmHg 87%
    19:00 -2°C° 0 mm 5 mps 758 mmHg 87%
    20:00 -2°C° 0 mm 5 mps 758 mmHg 86%
    21:00 -2°C° 0 mm 5 mps 757 mmHg 87%
    22:00 -3°C° 0 mm 6 mps 757 mmHg 87%
    23:00 -3°C° 0 mm 6 mps 756 mmHg 87%

    Tomorrow, 21 January, Tuesday

    Time Temperature Precipitation Wind Pressure Humidity
    00:00 -3°C° 0 mm 6 mps 756 mmHg 86%
    01:00 -3°C° 0 mm 6 mps 755 mmHg 85%
    02:00 -3°C° 0 mm 6 mps 755 mmHg 84%
    03:00 -3°C° 0 mm 6 mps 754 mmHg 85%
    04:00 -2°C° 0 mm 6 mps 753 mmHg 86%
    05:00 -2°C° 0 mm 6 mps 753 mmHg 87%
    06:00 -2°C° 0 mm 6 mps 752 mmHg 87%
    07:00 -2°C° 0 mm 6 mps 751 mmHg 88%
    08:00 -1°C° 0 mm 6 mps 751 mmHg 89%
    09:00 -1°C° 0 mm 6 mps 750 mmHg 89%
    10:00 -1°C° 0 mm 6 mps 750 mmHg 89%
    11:00 +1°C° 0 mm 6 mps 749 mmHg 90%
    12:00 +1°C° 0 mm 6 mps 748 mmHg 90%
    13:00 +1°C° 0 mm 6 mps 748 mmHg 91%
    14:00 +2°C° 0 mm 6 mps 747 mmHg 91%
    15:00 +2°C° 0.1 mm 7 mps 746 mmHg 91%
    16:00 +3°C° 0.1 mm 7 mps 746 mmHg 91%
    17:00 +2°C° 0.1 mm 8 mps 745 mmHg 91%
    18:00 +2°C° 0 mm 8 mps 744 mmHg 90%
    19:00 +2°C° 0 mm 9 mps 744 mmHg 89%
    20:00 +2°C° 0 mm 9 mps 743 mmHg 87%
    21:00 +2°C° 0 mm 9 mps 743 mmHg 88%
    22:00 +2°C° 0 mm 8 mps 743 mmHg 88%
    23:00 +2°C° 0 mm 8 mps 742 mmHg 88%

    Day after tomorrow, 22 January, Wednesday

    Time Temperature Precipitation Wind Pressure Humidity
    00:00 +1°C° 0 mm 8 mps 742 mmHg 87%
    01:00 +2°C° 0 mm 7 mps 743 mmHg 86%
    02:00 0°C° 0 mm 7 mps 743 mmHg 85%
    03:00 -1°C° 0 mm 6 mps 742 mmHg 83%
    04:00 -1°C° 0 mm 5 mps 741 mmHg 81%
    05:00 -1°C° 0 mm 5 mps 741 mmHg 79%
    06:00 -2°C° 0 mm 4 mps 740 mmHg 80%
    07:00 -1°C° 0 mm 3 mps 740 mmHg 81%
    08:00 -1°C° 0 mm 3 mps 739 mmHg 82%
    09:00 -1°C° 0.4 mm 3 mps 739 mmHg 84%
    10:00 -2°C° 0.4 mm 4 mps 738 mmHg 87%
    11:00 -1°C° 0.4 mm 4 mps 738 mmHg 89%
    12:00 -1°C° 0 mm 5 mps 738 mmHg 86%
    13:00 -2°C° 0 mm 6 mps 737 mmHg 82%
    14:00 -2°C° 0 mm 6 mps 737 mmHg 79%
    15:00 -2°C° 0.2 mm 7 mps 737 mmHg 81%
    16:00 -3°C° 0.2 mm 7 mps 737 mmHg 83%
    17:00 -3°C° 0.2 mm 7 mps 737 mmHg 86%
    18:00 -4°C° 0 mm 7 mps 737 mmHg 83%
    19:00 -4°C° 0 mm 6 mps 738 mmHg 80%
    20:00 -4°C° 0 mm 6 mps 738 mmHg 78%
    21:00 -4°C° 0 mm 7 mps 739 mmHg 80%
    22:00 -4°C° 0 mm 7 mps 739 mmHg 81%
    23:00 -4°C° 0 mm 7 mps 740 mmHg 83%

    23 January, Thursday

    Time Temperature Precipitation Wind Pressure Humidity
    00:00 -6°C° 0 mm 7 mps 740 mmHg 78%
    01:00 -6°C° 0 mm 7 mps 741 mmHg 74%
    02:00 -6°C° 0 mm 7 mps 742 mmHg 69%
    03:00 -7°C° 0 mm 7 mps 742 mmHg 68%
    04:00 -7°C° 0 mm 7 mps 742 mmHg 66%
    05:00 -7°C° 0 mm 7 mps 743 mmHg 64%
    06:00 -8°C° 0 mm 7 mps 744 mmHg 62%
    07:00 -8°C° 0 mm 7 mps 745 mmHg 60%
    08:00 -8°C° 0 mm 7 mps 746 mmHg 58%
    09:00 -7°C° 0 mm 7 mps 746 mmHg 56%
    10:00 -7°C° 0 mm 7 mps 747 mmHg 54%
    11:00 -6°C° 0 mm 7 mps 747 mmHg 52%
    12:00 -6°C° 0 mm 7 mps 748 mmHg 51%
    13:00 -5°C° 0 mm 8 mps 748 mmHg 50%
    14:00 -5°C° 0 mm 8 mps 748 mmHg 49%
    15:00 -4°C° 0 mm 7 mps 748 mmHg 53%
    16:00 -5°C° 0 mm 6 mps 749 mmHg 58%
    17:00 -5°C° 0 mm 5 mps 749 mmHg 62%
    18:00 -5°C° 0 mm 5 mps 749 mmHg 64%
    19:00 -5°C° 0 mm 5 mps 750 mmHg 66%
    20:00 -4°C° 0 mm 4 mps 750 mmHg 68%
    21:00 -4°C° 0 mm 4 mps 751 mmHg 73%
    22:00 -5°C° 0 mm 4 mps 751 mmHg 78%
    23:00 -5°C° 0 mm 4 mps 751 mmHg 83%

    24 January, Friday

    Time Temperature Precipitation Wind Pressure Humidity
    00:00 -5°C° 0 mm 4 mps 751 mmHg 84%
    01:00 -4°C° 0 mm 4 mps 751 mmHg 86%
    02:00 -4°C° 0 mm 4 mps 751 mmHg 88%
    03:00 -5°C° 0 mm 5 mps 750 mmHg 87%
    04:00 -5°C° 0 mm 5 mps 750 mmHg 85%
    05:00 -5°C° 0 mm 5 mps 749 mmHg 84%
    06:00 -5°C° 0 mm 6 mps 749 mmHg 83%
    07:00 -4°C° 0 mm 6 mps 748 mmHg 81%
    08:00 -4°C° 0 mm 6 mps 748 mmHg 79%
    09:00 -4°C° 0 mm 6 mps 748 mmHg 80%
    10:00 -4°C° 0 mm 6 mps 748 mmHg 80%
    11:00 -3°C° 0 mm 6 mps 748 mmHg 80%
    12:00 -3°C° 0 mm 6 mps 747 mmHg 80%
    13:00 -2°C° 0 mm 6 mps 747 mmHg 81%
    14:00 -2°C° 0 mm 7 mps 747 mmHg 81%
    15:00 -2°C° 0 mm 6 mps 747 mmHg 81%
    16:00 -2°C° 0 mm 6 mps 747 mmHg 81%
    17:00 -2°C° 0 mm 6 mps 747 mmHg 81%
    18:00 -3°C° 0 mm 6 mps 746 mmHg 79%
    19:00 -3°C° 0 mm 6 mps 746 mmHg 78%
    20:00 -4°C° 0 mm 6 mps 746 mmHg 76%
    21:00 -3°C° 0 mm 6 mps 746 mmHg 75%
    22:00 -3°C° 0 mm 6 mps 746 mmHg 74%
    23:00 -3°C° 0 mm 6 mps 746 mmHg 73%

    25 January, Saturday

    Time Temperature Precipitation Wind Pressure Humidity
    00:00 -2°C° 0 mm 5 mps 746 mmHg 75%
    01:00 -2°C° 0 mm 5 mps 746 mmHg 77%
    02:00 -2°C° 0 mm 5 mps 745 mmHg 78%
    03:00 -2°C° 0 mm 5 mps 745 mmHg 79%
    04:00 -2°C° 0 mm 5 mps 745 mmHg 79%
    05:00 -2°C° 0 mm 5 mps 745 mmHg 80%
    06:00 -2°C° 0 mm 5 mps 745 mmHg 79%
    07:00 -4°C° 0 mm 5 mps 745 mmHg 79%
    08:00 -3°C° 0 mm 4 mps 745 mmHg 78%
    09:00 -3°C° 0 mm 4 mps 745 mmHg 78%
    10:00 -2°C° 0 mm 4 mps 745 mmHg 78%
    11:00 -2°C° 0 mm 4 mps 745 mmHg 77%
    12:00 -2°C° 0 mm 4 mps 745 mmHg 78%
    13:00 -2°C° 0 mm 4 mps 745 mmHg 78%
    14:00 -2°C° 0 mm 4 mps 745 mmHg 79%
    15:00 -2°C° 0.1 mm 4 mps 745 mmHg 81%
    16:00 -1°C° 0.1 mm 3 mps 745 mmHg 84%
    17:00 -1°C° 0.1 mm 3 mps 745 mmHg 86%
    18:00 -1°C° 0 mm 3 mps 745 mmHg 87%
    19:00 -1°C° 0 mm 3 mps 745 mmHg 87%
    20:00 -1°C° 0 mm 3 mps 745 mmHg 88%
    21:00 -1°C° 0 mm 2 mps 745 mmHg 89%
    22:00 -1°C° 0 mm 2 mps 745 mmHg 89%
    23:00 -1°C° 0 mm 2 mps 746 mmHg 90%
    Show more